GW1480 Weather Reports


Display with metric or nautical units.
time (UTC)temp
F
wind
direction
speed
MPH
gust
MPH
rain 1hr
in
rain 24hr
in
rain mn
in
humidity
%
barometer
mb
20260502194517 56 250 0.0 2.0 0.00 0.00 0.00 46 1017.9
20260502193939 56 276 4.0 7.0 0.00 0.00 0.00 45 1017.9
20260502193323 55 243 0.0 0.0 0.00 0.00 0.00 46 1017.9
20260502192114 56 272 3.0 5.0 0.00 0.00 0.00 51 1018.2
20260502190930 56 270 3.0 5.0 0.00 0.00 0.00 52 1018.2
20260502190322 56 229 2.0 5.0 0.00 0.00 0.00 47 1018.2
20260502185712 56 239 3.0 5.0 0.00 0.00 0.00 49 1018.6
20260502185118 56 187 3.0 5.0 0.00 0.00 0.00 45 1018.2
20260502184513 56 211 0.0 2.0 0.00 0.00 0.00 47 1018.2
20260502183935 55 239 5.0 7.0 0.00 0.00 0.00 51 1018.6
20260502183322 55 112 0.0 2.0 0.00 0.00 0.00 53 1018.6
20260502182151 55 240 1.0 2.0 0.00 0.00 0.00 49 1018.6
20260502181552 55 216 0.0 0.0 0.00 0.00 0.00 50 1018.6
20260502180942 55 230 3.0 5.0 0.00 0.00 0.00 49 1018.6
20260502180316 55 235 4.0 5.0 0.00 0.00 0.00 50 1018.6
20260502163930 54 260 4.0 5.0 0.00 0.00 0.00 54 1019.3
20260502163338 54 272 0.0 0.0 0.00 0.00 0.00 50 1019.3
20260502162735 54 256 7.0 10.0 0.00 0.00 0.00 49 1018.9
20260502162134 54 250 0.0 2.0 0.00 0.00 0.00 51 1019.3
20260502161514 55 271 0.0 2.0 0.00 0.00 0.00 53 1019.3
20260502152129 55 307 1.0 5.0 0.00 0.00 0.00 58 1019.3
20260502151544 55 323 3.0 5.0 0.00 0.00 0.00 56 1019.3
20260502150917 55 254 2.0 5.0 0.00 0.00 0.00 58 1019.3
20260502150345 55 293 1.0 2.0 0.00 0.00 0.00 55 1019.6
20260502130324 46 233 0.0 0.0 0.00 0.00 0.00 86 1019.6
20260502123319 39 251 0.0 0.0 0.00 0.00 0.00 98 1019.6
20260502122727 38 280 0.0 0.0 0.00 0.00 0.00 98 1019.3
20260502122144 37 276 0.0 0.0 0.00 0.00 0.00 98 1019.6
20260502121540 36 264 0.0 0.0 0.00 0.00 0.00 98 1019.3
20260502120923 36 271 0.0 0.0 0.00 0.00 0.00 98 1019.6
20260502115717 34 252 0.0 0.0 0.00 0.00 0.00 98 1019.3
20260502114526 34 254 0.0 0.0 0.00 0.00 0.00 98 1019.3
20260502113932 34 255 0.0 0.0 0.00 0.00 0.00 98 1019.6
20260502113336 34 257 0.0 0.0 0.00 0.00 0.00 98 1019.6
20260502112731 34 249 0.0 0.0 0.00 0.00 0.00 98 1019.6
20260502111521 33 256 0.0 0.0 0.00 0.00 0.00 98 1018.9
20260502110923 33 253 0.0 0.0 0.00 0.00 0.00 98 1019.3
20260502105718 33 252 0.0 0.0 0.00 0.00 0.00 98 1019.3
20260502105151 33 254 0.0 0.0 0.00 0.00 0.00 98 1018.9
20260502104512 33 252 0.0 0.0 0.00 0.00 0.00 98 1018.9
20260502103944 33 252 0.0 0.0 0.00 0.00 0.00 98 1018.6
20260502103330 33 241 0.0 0.0 0.00 0.00 0.00 98 1018.6
20260502102722 33 257 0.0 0.0 0.00 0.00 0.00 98 1018.9
20260502102128 33 253 0.0 0.0 0.00 0.00 0.00 98 1018.9
20260502100935 33 252 0.0 0.0 0.00 0.00 0.00 98 1019.3
20260502100347 33 254 0.0 0.0 0.00 0.00 0.00 98 1019.3
20260502090948 34 252 0.0 0.0 0.00 0.00 0.00 98 1019.3
20260502090333 34 252 0.0 0.0 0.00 0.00 0.00 98 1019.6
20260502071526 35 252 0.0 0.0 0.00 0.00 0.00 97 1018.6
20260502070913 36 252 0.0 0.0 0.00 0.00 0.00 97 1018.9
20260502070337 36 255 0.0 0.0 0.00 0.00 0.00 97 1018.9
20260502065712 36 251 0.0 0.0 0.00 0.00 0.00 97 1018.9
20260502065141 36 252 0.0 0.0 0.00 0.00 0.00 97 1018.9
20260502063913 37 252 0.0 0.0 0.00 0.00 0.00 97 1018.9
20260502063326 37 252 0.0 0.0 0.00 0.00 0.00 97 1019.3
20260502062727 38 252 0.0 0.0 0.00 0.00 0.00 97 1018.9
20260502062149 38 252 0.0 0.0 0.00 0.00 0.00 97 1018.9
20260502061532 38 256 0.0 0.0 0.00 0.00 0.00 97 1019.6
20260502060950 38 257 0.0 0.0 0.00 0.00 0.00 96 1019.6
20260502060338 38 230 0.0 0.0 0.00 0.00 0.00 96 1019.6
20260502055713 39 250 0.0 0.0 0.00 0.00 0.00 96 1019.6
20260502055137 39 247 0.0 0.0 0.00 0.00 0.00 96 1019.6
20260502054539 39 240 0.0 0.0 0.00 0.00 0.00 96 1019.3
20260502053936 40 248 0.0 0.0 0.00 0.00 0.00 96 1019.3
20260502053342 40 260 0.0 0.0 0.00 0.00 0.00 96 1019.3
20260502052742 41 251 0.0 0.0 0.00 0.00 0.00 95 1019.6
20260502052136 41 256 0.0 0.0 0.00 0.00 0.00 95 1019.6
20260502051537 41 243 0.0 0.0 0.00 0.00 0.00 95 1019.6
20260502050947 42 251 0.0 0.0 0.00 0.00 0.00 95 1019.6
20260502045713 42 255 0.0 0.0 0.00 0.00 0.00 95 1019.6
20260502045152 42 259 0.0 0.0 0.00 0.00 0.00 95 1019.6
20260502043951 43 253 0.0 0.0 0.00 0.00 0.00 94 1019.9
20260502042725 43 254 0.0 0.0 0.00 0.00 0.00 94 1019.6
20260502042129 43 255 0.0 0.0 0.00 0.00 0.00 94 1019.6
20260502041554 44 256 0.0 0.0 0.00 0.00 0.00 94 1019.3
20260502040935 44 249 0.0 0.0 0.00 0.00 0.00 93 1019.6
20260502040353 44 248 0.0 0.0 0.00 0.00 0.00 93 1019.6
20260502035735 45 249 0.0 0.0 0.00 0.00 0.00 91 1019.6
20260502033952 46 247 0.0 0.0 0.00 0.00 0.00 90 1019.6
20260502033341 47 255 0.0 0.0 0.00 0.00 0.00 89 1019.3
20260502032121 48 258 0.0 0.0 0.00 0.00 0.00 88 1019.6
20260502031527 48 254 0.0 0.0 0.00 0.00 0.00 87 1019.6
20260502030936 48 255 0.0 0.0 0.00 0.00 0.00 85 1019.6
20260502030329 49 255 0.0 0.0 0.00 0.00 0.00 85 1019.6
20260502025726 49 255 0.0 0.0 0.00 0.00 0.00 82 1019.6
20260502025148 49 270 0.0 0.0 0.00 0.00 0.00 81 1019.6
20260502024553 50 256 0.0 0.0 0.00 0.00 0.00 80 1019.6
20260502023949 50 255 0.0 0.0 0.00 0.00 0.00 79 1019.6
20260502023327 50 242 0.0 0.0 0.00 0.00 0.00 76 1019.6
20260502022736 50 271 0.0 0.0 0.00 0.00 0.00 76 1019.6
20260502022149 50 252 0.0 0.0 0.00 0.00 0.00 75 1019.3
20260502021524 50 227 0.0 0.0 0.00 0.00 0.00 74 1019.3
20260502020917 50 262 0.0 0.0 0.00 0.00 0.00 74 1019.3
20260502020338 51 201 0.0 2.0 0.00 0.00 0.00 73 1019.3
20260502015114 51 246 0.0 0.0 0.00 0.00 0.00 72 1018.6
20260502014554 52 246 3.0 5.0 0.00 0.00 0.00 70 1018.6
20260502013953 52 239 3.0 5.0 0.00 0.00 0.00 69 1018.6
20260502013312 52 219 3.0 5.0 0.00 0.00 0.00 69 1018.2
20260502012741 53 248 4.0 7.0 0.00 0.00 0.00 69 1018.2
20260502012136 53 217 10.0 15.0 0.00 0.00 0.00 68 1018.2
20260502011521 53 237 2.0 5.0 0.00 0.00 0.00 69 1017.9
20260502010935 53 260 1.0 2.0 0.00 0.00 0.00 70 1017.9
20260502010317 53 261 2.0 5.0 0.00 0.00 0.00 71 1017.9
20260502005749 53 230 3.0 5.0 0.00 0.00 0.00 72 1017.6
20260502005118 53 212 5.0 10.0 0.00 0.00 0.00 70 1017.6
20260502004519 53 222 3.0 7.0 0.00 0.00 0.00 71 1017.6
20260502003914 53 237 0.0 2.0 0.00 0.00 0.00 73 1017.2
20260502003311 53 234 0.0 2.0 0.00 0.00 0.00 76 1016.9
20260502002144 54 254 0.0 0.0 0.00 0.00 0.00 79 1016.9
20260502001533 54 273 0.0 0.0 0.00 0.00 0.00 78 1016.9
20260502000923 54 254 0.0 0.0 0.00 0.00 0.00 75 1016.9
20260502000354 55 276 5.0 7.0 0.00 0.00 0.00 71 1016.5
20260501235710 55 258 0.0 0.0 0.00 0.00 0.00 73 1016.5
20260501235129 55 257 0.0 0.0 0.00 0.00 0.00 76 1016.5
20260501234529 55 240 0.0 0.0 0.00 0.00 0.00 72 1016.2
20260501233932 55 236 0.0 2.0 0.00 0.00 0.00 73 1016.2
20260501233330 56 260 3.0 5.0 0.00 0.00 0.00 69 1015.9
20260501232119 56 263 2.0 7.0 0.00 0.00 0.00 69 1015.9
20260501231520 56 183 8.0 10.0 0.00 0.00 0.00 68 1015.9
20260501230915 56 271 2.0 7.0 0.00 0.00 0.00 67 1015.9
20260501230339 56 267 0.0 2.0 0.00 0.00 0.00 68 1015.9
20260501225745 56 256 4.0 5.0 0.00 0.00 0.00 66 1015.9
20260501224521 56 264 0.0 2.0 0.00 0.00 0.00 66 1015.9
20260501223953 56 252 0.0 0.0 0.00 0.00 0.00 68 1015.9
20260501223351 57 264 0.0 2.0 0.00 0.00 0.00 66 1015.5
20260501222716 57 273 0.0 0.0 0.00 0.00 0.00 68 1015.9
20260501222115 57 251 3.0 5.0 0.00 0.00 0.00 66 1015.5
20260501221520 58 244 2.0 5.0 0.00 0.00 0.00 65 1015.5
20260501220340 59 264 4.0 5.0 0.00 0.00 0.00 64 1015.5
20260501215719 59 226 2.0 5.0 0.00 0.00 0.00 63 1015.2
20260501215129 60 248 4.0 7.0 0.00 0.00 0.00 64 1015.2
20260501214546 60 273 2.0 5.0 0.00 0.00 0.00 61 1015.5
20260501213923 60 233 3.0 5.0 0.00 0.00 0.00 62 1015.5
20260501213324 60 237 1.0 2.0 0.00 0.00 0.00 61 1015.2
20260501212738 60 33 0.0 2.0 0.00 0.00 0.00 64 1015.2
20260501212141 60 225 6.0 7.0 0.00 0.00 0.00 64 1014.9
20260501210942 61 218 4.0 5.0 0.00 0.00 0.00 62 1014.9
20260501210334 61 261 4.0 7.0 0.00 0.00 0.00 67 1014.9
20260501205152 61 263 4.0 7.0 0.00 0.00 0.00 69 1014.9
20260501204536 62 290 3.0 5.0 0.00 0.00 0.00 61 1014.5
20260501203941 62 214 2.0 5.0 0.00 0.00 0.00 59 1014.5
20260501203329 63 213 7.0 10.0 0.00 0.00 0.00 59 1014.5
20260501202716 63 156 3.0 7.0 0.00 0.00 0.00 57 1014.5
20260501202122 64 8 3.0 5.0 0.00 0.00 0.00 55 1014.5
20260501201536 64 332 3.0 5.0 0.00 0.00 0.00 56 1014.5
20260501200947 65 264 5.0 7.0 0.00 0.00 0.00 55 1014.2
20260501200349 65 218 3.0 5.0 0.00 0.00 0.00 54 1014.2
20260501195727 66 318 4.0 7.0 0.00 0.00 0.00 53 1013.8
20260501195125 66 251 6.0 10.0 0.00 0.00 0.00 51 1014.2